Location: Liscomb Game Sanctuary
(45.1633°N, 62.5575°W)
Time: 19:13:50
(UTC-03:00)

Amateur Radio Satellites - All Passes

Search period start: 30 August 2014 18:43
Search period end: 31 August 2014 18:43
Location: Liscomb Game Sanctuary, 45.1633°N, 62.5575°W

Satellite Date Start Highest point End Downlink Frequencies (MHz)
Time Altitude Azimuth
HO-68 30 Aug 18:52:14 18:54:35 12° 44° (NE) 18:56:56 435.675 MHz FM
Hamsat 30 Aug 19:08:57 19:12:34 26° 266° (W) 19:16:14 145.90 MHz
OPAL 30 Aug 19:09:59 19:14:13 26° 300° (WNW) 19:18:27 ?
STRAND 1 30 Aug 19:14:16 19:18:33 26° 94° (E) 19:22:48 ?
RS-15 30 Aug 19:15:15 19:24:14 30° 256° (WSW) 19:33:32 29.354 - 29.394 USB, Beacon 29.352 USB
Sapphire 30 Aug 19:24:18 19:28:42 25° 318° (NW) 19:33:07 437.095 MHz 1200 baud AX-25 AFSK
PCSat 30 Aug 19:55:23 19:58:46 17° 326° (NW) 20:02:10 145.825 MHz
SO-67 30 Aug 20:10:22 20:13:20 26° 265° (W) 20:16:19 435.3500 MHz FM
HO-68 30 Aug 20:33:52 20:40:41 51° 65° (ENE) 20:47:32 435.675 MHz FM
STRAND 1 30 Aug 20:53:05 20:57:53 42° 292° (WNW) 21:02:39 ?
UKube-1 30 Aug 20:54:27 20:58:10 28° 66° (ENE) 21:01:53 145.840 MHz, 145.915 MHz
Oscar 11 30 Aug 21:01:13 21:04:29 21° 64° (ENE) 21:07:45 145.825 FM, Beacon 2401.500 USB
FUNcube-1 30 Aug 21:27:25 21:29:55 16° 62° (ENE) 21:32:27 145.950 - 145.970 MHz USB
MaSat-1 30 Aug 21:32:57 21:35:50 16° 40° (NE) 21:38:32 437.345 MHz
KITSAT 1 30 Aug 22:09:01 22:11:23 12° 97° (E) 22:13:46 435.175 FM
HO-68 30 Aug 22:22:13 22:28:36 35° 264° (W) 22:35:01 435.675 MHz FM
UKube-1 30 Aug 22:30:30 22:34:19 30° 264° (W) 22:38:09 145.840 MHz, 145.915 MHz
Oscar 11 30 Aug 22:36:17 22:40:24 42° 262° (W) 22:44:33 145.825 FM, Beacon 2401.500 USB
FUNcube-1 30 Aug 23:01:46 23:05:52 56° 260° (W) 23:10:05 145.950 - 145.970 MHz USB
MaSat-1 30 Aug 23:08:58 23:13:41 88° 243° (WSW) 23:17:44 437.345 MHz
Saudisat 1A 30 Aug 23:22:04 23:26:27 73° 123° (ESE) 23:30:52 436.775 MHz
AO-40 30 Aug 23:39:26 01:55:47 26° 205° (SSW) 06:04:25 Beacon 2401.320
KITSAT 1 30 Aug 23:57:13 00:05:07 62° 116° (ESE) 00:13:04 435.175 FM
Sapphire 31 Aug 00:42:50 00:46:37 19° 37° (NE) 00:50:23 437.095 MHz 1200 baud AX-25 AFSK
Saudisat 1A 31 Aug 01:03:15 01:06:31 20° 323° (NW) 01:09:48 436.775 MHz
PCSat 31 Aug 01:11:56 01:16:37 28° 44° (NE) 01:21:16 145.825 MHz
Oscar 19 31 Aug 01:23:53 01:25:53 12° 87° (E) 01:27:52 437.125 CW, 437.150 USB
KITSAT 1 31 Aug 01:53:26 02:00:56 40° 318° (NW) 02:08:29 435.175 FM
Oscar 16 31 Aug 01:56:57 02:01:17 26° 94° (E) 02:05:34 437.025 USB, Beacon 2401.1428
ITAMSAT 1 31 Aug 01:57:32 01:58:15 10° 86° (E) 01:58:58 435.822 SSB
JAS-1B 31 Aug 02:03:12 02:06:22 14° 82° (E) 02:09:21 435.800 - 435.900 CW/SSB
Uribyol 2 31 Aug 02:05:45 02:08:25 14° 89° (E) 02:11:05 436.500 FM
AO-27 31 Aug 02:24:01 02:27:47 20° 92° (E) 02:31:32 436.795 MHz FM
Sapphire 31 Aug 02:25:26 02:30:54 83° 58° (ENE) 02:36:20 437.095 MHz 1200 baud AX-25 AFSK
Gurwin Techsat 1B 31 Aug 02:52:52 02:56:20 17° 90° (E) 02:59:46 435.225 FM
PCSat 31 Aug 02:55:02 03:00:21 56° 244° (WSW) 03:05:37 145.825 MHz
Oscar 19 31 Aug 03:00:42 03:05:57 89° 285° (WNW) 03:11:09 437.125 CW, 437.150 USB
OPAL 31 Aug 03:11:08 03:14:21 17° 56° (NE) 03:17:36 ?
AO-Echo 31 Aug 03:27:13 03:31:56 82° 104° (ESE) 03:36:39 ?
SO-50 31 Aug 03:33:16 03:36:55 25° 114° (ESE) 03:40:38 436.795 FM
ITAMSAT 1 31 Aug 03:33:21 03:38:34 81° 104° (ESE) 03:43:45 435.822 SSB
Oscar 16 31 Aug 03:35:53 03:40:48 44° 291° (WNW) 03:45:42 437.025 USB, Beacon 2401.1428
Uribyol 2 31 Aug 03:43:18 03:48:31 79° 286° (WNW) 03:53:43 436.500 FM
TMSAT-1 31 Aug 03:43:20 03:48:12 36° 96° (E) 03:53:01 436.925 FM
JAS-1B 31 Aug 03:51:25 03:58:24 90° 105° (ESE) 04:04:21 435.800 - 435.900 CW/SSB
KITSAT 1 31 Aug 03:53:41 03:58:57 18° 346° (NNW) 04:04:14 435.175 FM
AO-27 31 Aug 04:02:34 04:07:39 57° 289° (WNW) 04:12:43 436.795 MHz FM
Sapphire 31 Aug 04:10:32 04:13:36 15° 256° (WSW) 04:16:40 437.095 MHz 1200 baud AX-25 AFSK
Uosat F 31 Aug 04:19:18 04:21:59 14° 89° (E) 04:24:40 435.120 FM
Gurwin Techsat 1B 31 Aug 04:31:30 04:36:47 67° 288° (WNW) 04:42:02 435.225 FM
Oscar 19 31 Aug 04:41:52 04:44:32 14° 303° (WNW) 04:47:13 437.125 CW, 437.150 USB
AO-7 31 Aug 04:44:50 04:52:11 34° 96° (E) 04:59:27 29.400 - 29.500 MHz
OPAL 31 Aug 04:47:34 04:52:37 77° 254° (WSW) 04:57:48 ?
AO-Echo 31 Aug 05:07:52 05:10:05 13° 302° (WNW) 05:12:18 ?
SO-50 31 Aug 05:12:55 05:17:14 44° 313° (NW) 05:21:40 436.795 FM
ITAMSAT 1 31 Aug 05:14:22 05:17:25 16° 302° (WNW) 05:20:27 435.822 SSB
TMSAT-1 31 Aug 05:23:21 05:28:04 33° 294° (WNW) 05:32:45 436.925 FM
Uribyol 2 31 Aug 05:25:00 05:27:09 13° 305° (NW) 05:29:19 436.500 FM
UOSAT-12 31 Aug 05:31:15 05:35:18 31° 115° (ESE) 05:39:25 437.025 FM, 437.400 FM
JAS-1B 31 Aug 05:43:27 05:47:52 18° 310° (NW) 05:51:55 435.800 - 435.900 CW/SSB
JAS-2 31 Aug 05:48:40 05:50:43 12° 88° (E) 05:52:48 435.800 - 435.900 CW/SSB, 435.910 FM
KITSAT 1 31 Aug 05:52:32 05:58:02 19° 17° (NNE) 06:03:31 435.175 FM
Uosat F 31 Aug 05:56:19 06:01:20 74° 287° (WNW) 06:06:18 435.120 FM
Saudisat 1A 31 Aug 06:08:10 06:11:20 19° 36° (NE) 06:14:29 436.775 MHz
Gurwin Techsat 1B 31 Aug 06:14:26 06:15:46 11° 306° (NW) 06:17:07 435.225 FM
STRAND 1 31 Aug 06:32:04 06:36:55 47° 69° (ENE) 06:41:48 ?
AO-7 31 Aug 06:37:16 06:45:22 60° 296° (WNW) 06:53:26 29.400 - 29.500 MHz
Oscar 10/S400 31 Aug 06:43:51 07:09:49 11° 258° (WSW) 07:43:01 145.825 - 145.975 CW/USB, Beacon 145.810 USB
Hamsat 31 Aug 06:51:51 06:56:06 49° 99° (E) 07:00:16 145.90 MHz
SO-50 31 Aug 06:57:19 06:59:01 12° 335° (NNW) 07:00:43 436.795 FM
UOSAT-12 31 Aug 07:10:59 07:15:21 39° 314° (NW) 07:19:48 437.025 FM, 437.400 FM
RS-15 31 Aug 07:28:28 07:38:29 42° 109° (ESE) 07:48:21 29.354 - 29.394 USB, Beacon 29.352 USB
JAS-2 31 Aug 07:31:15 07:36:30 87° 285° (WNW) 07:42:06 435.800 - 435.900 CW/SSB, 435.910 FM
SO-67 31 Aug 07:32:19 07:34:44 18° 93° (E) 07:37:08 435.3500 MHz FM
Uosat F 31 Aug 07:37:49 07:39:14 11° 305° (NW) 07:40:40 435.120 FM
Saudisat 1A 31 Aug 07:47:01 07:51:27 79° 236° (SW) 07:55:51 436.775 MHz
KITSAT 1 31 Aug 07:48:08 07:55:50 45° 44° (NE) 08:03:29 435.175 FM
STRAND 1 31 Aug 08:12:19 08:16:21 23° 267° (W) 08:20:24 ?
Hamsat 31 Aug 08:28:42 08:31:42 18° 296° (WNW) 08:34:40 145.90 MHz
AO-7 31 Aug 08:31:52 08:36:31 17° 318° (NW) 08:41:10 29.400 - 29.500 MHz
UOSAT-12 31 Aug 08:55:22 08:56:50 11° 337° (NNW) 08:58:18 437.025 FM, 437.400 FM
SO-67 31 Aug 09:04:47 09:07:50 29° 290° (WNW) 09:10:52 435.3500 MHz FM
JAS-2 31 Aug 09:18:36 09:20:56 13° 303° (WNW) 09:23:17 435.800 - 435.900 CW/SSB, 435.910 FM
RS-15 31 Aug 09:39:24 09:50:20 64° 313° (NW) 10:01:14 29.354 - 29.394 USB, Beacon 29.352 USB
KITSAT 1 31 Aug 09:43:39 09:51:25 53° 246° (WSW) 09:59:08 435.175 FM
HO-68 31 Aug 09:46:37 09:53:22 43° 98° (E) 10:00:05 435.675 MHz FM
UKube-1 31 Aug 10:16:12 10:20:15 37° 98° (E) 10:24:17 145.840 MHz, 145.915 MHz
Oscar 11 31 Aug 10:21:55 10:25:47 30° 96° (E) 10:29:37 145.825 FM, Beacon 2401.500 USB
SO-50 31 Aug 10:22:53 10:24:47 12° 26° (NNE) 10:26:42 436.795 FM
FUNcube-1 31 Aug 10:48:57 10:52:41 25° 94° (E) 10:56:27 145.950 - 145.970 MHz USB
ISS 31 Aug 10:51:17 10:54:20 35° 141° (SE) 10:57:25 145.800 FM
HO-68 31 Aug 11:34:26 11:41:03 42° 297° (WNW) 11:47:40 435.675 MHz FM
UKube-1 31 Aug 11:52:50 11:56:16 23° 295° (WNW) 11:59:40 145.840 MHz, 145.915 MHz
RS-15 31 Aug 11:56:04 12:05:19 30° 344° (NNW) 12:14:40 29.354 - 29.394 USB, Beacon 29.352 USB
Oscar 11 31 Aug 11:58:09 12:01:54 28° 293° (WNW) 12:05:38 145.825 FM, Beacon 2401.500 USB
SO-50 31 Aug 12:01:58 12:06:33 44° 47° (NE) 12:11:11 436.795 FM
UOSAT-12 31 Aug 12:19:33 12:21:46 13° 27° (NNE) 12:23:58 437.025 FM, 437.400 FM
FUNcube-1 31 Aug 12:25:00 12:29:09 37° 291° (WNW) 12:33:21 145.950 - 145.970 MHz USB
ISS 31 Aug 12:27:49 12:31:02 44° 339° (NNW) 12:34:16 145.800 FM
Oscar 19 31 Aug 12:41:53 12:45:54 23° 62° (ENE) 12:49:56 437.125 CW, 437.150 USB
JAS-1B 31 Aug 12:47:24 12:54:40 26° 56° (NE) 13:01:17 435.800 - 435.900 CW/SSB
MaSat-1 31 Aug 12:58:40 13:02:54 29° 106° (ESE) 13:07:20 437.345 MHz
AO-Echo 31 Aug 13:05:27 13:08:46 18° 61° (ENE) 13:12:01 ?
Oscar 16 31 Aug 13:15:45 13:20:39 46° 69° (ENE) 13:25:36 437.025 USB, Beacon 2401.1428
ITAMSAT 1 31 Aug 13:15:46 13:19:39 22° 61° (ENE) 13:23:32 435.822 SSB
Uribyol 2 31 Aug 13:25:04 13:29:21 27° 64° (ENE) 13:33:39 436.500 FM
TMSAT-1 31 Aug 13:31:04 13:32:20 11° 54° (NE) 13:33:37 436.925 FM
SO-50 31 Aug 13:42:53 13:46:58 28° 245° (WSW) 13:51:04 436.795 FM
AO-27 31 Aug 13:43:54 13:48:38 38° 67° (ENE) 13:53:23 436.795 MHz FM
UOSAT-12 31 Aug 13:58:25 14:03:03 50° 48° (NE) 14:07:36 437.025 FM, 437.400 FM
AO-7 31 Aug 13:58:30 14:02:46 15° 41° (NE) 14:07:01 29.400 - 29.500 MHz
ISS 31 Aug 14:05:27 14:08:18 26° 359° (N) 14:11:10 145.800 FM
RS-15 31 Aug 14:12:38 14:22:04 31° 19° (NNE) 14:31:39 29.354 - 29.394 USB, Beacon 29.352 USB
Gurwin Techsat 1B 31 Aug 14:15:35 14:20:18 34° 66° (ENE) 14:25:02 435.225 FM
Oscar 19 31 Aug 14:19:53 14:24:54 52° 260° (W) 14:29:59 437.125 CW, 437.150 USB
JAS-1B 31 Aug 14:34:31 14:44:19 89° 74° (ENE) 14:53:01 435.800 - 435.900 CW/SSB
MaSat-1 31 Aug 14:34:59 14:39:46 43° 305° (NW) 14:44:42 437.345 MHz
AO-Echo 31 Aug 14:42:07 14:47:06 63° 258° (WSW) 14:51:57 ?
ITAMSAT 1 31 Aug 14:53:42 14:58:46 56° 259° (W) 15:03:52 435.822 SSB
Oscar 16 31 Aug 14:56:02 15:00:12 25° 267° (W) 15:04:26 437.025 USB, Beacon 2401.1428
Uribyol 2 31 Aug 15:03:45 15:08:37 43° 261° (W) 15:13:33 436.500 FM
TMSAT-1 31 Aug 15:06:02 15:11:16 67° 72° (ENE) 15:16:32 436.925 FM
AO-27 31 Aug 15:23:41 15:28:12 30° 265° (W) 15:32:45 436.795 MHz FM
Uosat F 31 Aug 15:34:03 15:38:10 26° 64° (ENE) 15:42:17 435.120 FM
UOSAT-12 31 Aug 15:39:09 15:42:55 24° 247° (WSW) 15:46:38 437.025 FM, 437.400 FM
ISS 31 Aug 15:42:25 15:45:36 41° 19° (NNE) 15:48:47 145.800 FM
AO-7 31 Aug 15:45:44 15:53:47 55° 63° (ENE) 16:01:49 29.400 - 29.500 MHz
Gurwin Techsat 1B 31 Aug 15:55:23 16:00:13 35° 264° (W) 16:05:05 435.225 FM
PCSat 31 Aug 15:58:33 16:01:09 14° 103° (ESE) 16:03:45 145.825 MHz
MaSat-1 31 Aug 16:17:18 16:18:09 10° 326° (NW) 16:18:59 437.345 MHz
RS-15 31 Aug 16:25:51 16:36:52 68° 49° (NE) 16:48:17 29.354 - 29.394 USB, Beacon 29.352 USB
JAS-1B 31 Aug 16:28:16 16:35:34 24° 271° (W) 16:42:22 435.800 - 435.900 CW/SSB
Oscar 10/S400 31 Aug 16:34:27 16:47:20 20° 142° (SE) 17:02:03 145.825 - 145.975 CW/USB, Beacon 145.810 USB
TMSAT-1 31 Aug 16:48:16 16:51:41 17° 270° (W) 16:55:08 436.925 FM
OPAL 31 Aug 16:55:59 17:00:11 24° 95° (E) 17:04:21 ?
Sapphire 31 Aug 17:09:13 17:14:24 50° 115° (ESE) 17:19:38 437.095 MHz 1200 baud AX-25 AFSK
Uosat F 31 Aug 17:12:00 17:16:45 42° 261° (W) 17:21:31 435.120 FM
ISS 31 Aug 17:19:12 17:22:21 40° 218° (SW) 17:25:29 145.800 FM
PCSat 31 Aug 17:38:20 17:43:45 90° 122° (ESE) 17:49:13 145.825 MHz
AO-7 31 Aug 17:39:16 17:46:49 38° 263° (W) 17:54:26 29.400 - 29.500 MHz
JAS-2 31 Aug 17:45:31 17:51:18 50° 70° (ENE) 17:56:33 435.800 - 435.900 CW/SSB, 435.910 FM
Hamsat 31 Aug 17:46:59 17:51:06 45° 71° (ENE) 17:55:16 145.90 MHz
